Location: Armijo
(35.0537°N, 106.6772°W)
Time: 15:16:59
(UTC+00:00)

Daily predictions for brighter satellites

Satellite Brightness Start Highest point End
(mag) Time Altitude Azimuth Time Altitude Azimuth Time Altitude Azimuth
BREEZE-M DEB (TANK) 2.5 12:04:54 30° W 12:05:42 35° SW 12:07:54 10° SSE
Cosmos 389 Rocket 4.1 12:07:44 18° NW 12:07:44 18° NW 12:09:09 10° NNW
CZ-4B R/B 4.1 12:02:46 10° N 12:06:38 47° WNW 12:10:41 10° SSW
GP-B 3.2 12:03:23 10° S 12:07:48 78° E 12:12:14 10° N
Cosmos 1295 Rocket 4.4 12:02:49 10° S 12:09:02 83° W 12:15:12 10° N
Cosmos 1606 Rocket 3.5 12:10:55 10° NNW 12:15:10 60° W 12:19:25 10° S
CZ-4B R/B 4.3 12:10:10 10° NNE 12:15:15 46° E 12:20:19 10° S
Cosmos 1850 Rocket 4.2 12:16:40 10° S 12:21:50 77° ESE 12:27:01 10° NNE
H-2A R/B 4.2 12:22:21 10° NW 12:24:40 15° WNW 12:24:46 15° WNW
OE (NEXTSAT) 4.4 12:23:43 16° WNW 12:26:23 68° SW 12:29:52 10° SE
MOS 1-B 4.3 12:21:36 10° N 12:27:25 73° WNW 12:33:10 10° SSW
Okean 1-7 Rocket 4.0 12:26:18 10° SSW 12:30:28 40° W 12:34:42 10° N
SL-8 R/B 3.9 12:26:15 10° SW 12:31:02 73° SE 12:35:48 10° NE
Cosmos 1356 3.5 12:28:44 10° NNW 12:32:07 54° W 12:35:29 10° S
Meteor 1-24 Rocket 4.2 12:26:36 10° S 12:32:13 69° E 12:38:04 10° NNE
Cosmos 1626 Rocket 4.0 12:29:37 10° S 12:33:52 64° E 12:38:08 10° NNE
Cosmos 1943 Rocket 4.3 12:33:22 10° N 12:38:09 27° ENE 12:42:55 10° ESE
COSMO-SKYMED 1 2.5 12:34:05 10° S 12:38:24 72° W 12:42:44 10° NNW
SL-16 R/B 2.6 12:33:27 10° SW 12:38:44 40° WNW 12:44:04 10° N
Cosmos 1437 Rocket 3.1 12:36:39 10° SSW 12:40:12 38° WNW 12:43:45 10° N
FENGYUN 3A 3.8 12:36:58 10° NNE 12:42:26 88° ESE 12:47:52 10° SSW
KORONAS-FOTON 3.8 12:40:26 10° SSW 12:44:08 58° W 12:47:52 10° N
Meteor 1-16 Rocket 4.4 12:40:27 10° NNW 12:45:30 45° W 12:50:37 10° SSW
METEOR-M 4.1 12:43:51 10° N 12:49:12 74° WNW 12:54:30 10° SSW
Cosmos 2278 Rocket 3.6 12:50:10 10° WNW 12:53:46 17° W 12:57:22 10° SW
Cosmos 2228 4.1 12:51:06 10° NW 12:54:28 23° W 12:57:49 10° SW
Cosmos 2297 3.8 12:49:43 10° NNW 12:55:24 64° WSW 13:01:02 10° S
USA 234 3.9 12:51:14 10° SSE 12:57:08 37° SW 13:03:06 10° WNW
Milstar 3 Cent rocket 3.1 12:53:01 10° WSW 12:57:45 36° S 13:02:04 10° ESE
